Flag for Canada Weather past 2 weeks in Waterloo, Ontario, Canada

Now
73 °F

Clear.


Feels Like: 76 °F
Forecast: 61 / 77 °F
Wind: 13 mph from South

Location: Waterloo Well

Current Time: May 26, 2015 at 10:49:41 PM

Latest Report: May 26, 2015 at 10:00 PM


Visibility: 9 mi

Pressure: 29.95 "Hg

Humidity: 69%

Dew point: 63 °F

Location of WaterlooLocation

Historic Weather in Waterloo — Graph

°F

Waterloo temperature yesterday

Maximum temperature yesterday: 81 °F (at 5:00 PM)
Minimum temperature yesterday: 61 °F (at 1:00 AM)
Average temperature yesterday: 70 °F

Past Weeks' High & Low Weather Summary

 TemperatureHumidityPressure
High84 °F (May 18, 3:00 PM)94% (May 16, 1:00 AM)30.50 "Hg (May 16, 1:00 AM)
Low27 °F (May 23, 6:00 AM)20% (May 23, 3:00 PM)29.75 "Hg (May 12, 2:01 AM)
Average58 °F61%30.10 "Hg
* Reported May 11 9:00 PM — May 26 9:00 PM, Waterloo, Weather by CustomWeather, © 2015

Note: Actual official high and low records may vary slightly from our data, if they occured in-between our weather recording intervals... More about our weather records

Advertising

Waterloo weather history for previous 24 hours

 ConditionsComfort  
Time TempWeatherWind HumidityBarometerVisibility
9:00 PM
Tue, May 26
75 °FSunny.13 mph65%29.94 "Hg9 mi
8:00 PM77 °FSunny.12 mph57%29.95 "Hg9 mi
7:00 PM81 °FSunny.13 mph51%29.96 "Hg9 mi
6:00 PM82 °FSunny.16 mph48%29.97 "Hg9 mi
5:00 PM81 °FSunny.16 mph51%29.98 "Hg9 mi
4:00 PM82 °FPassing clouds.15 mph51%30.01 "Hg9 mi
3:00 PM82 °FPassing clouds.16 mph48%30.03 "Hg9 mi
2:00 PM81 °FScattered clouds.14 mph54%30.04 "Hg9 mi
1:00 PM81 °FBroken clouds.17 mph54%30.05 "Hg9 mi
12:00 PM81 °FScattered clouds.15 mph54%30.06 "Hg9 mi
11:00 AM79 °FPassing clouds.9 mph61%30.06 "Hg9 mi
10:00 AM75 °FSunny.6 mph69%30.08 "Hg9 mi
9:00 AM72 °FSunny.8 mph73%30.08 "Hg9 mi
8:00 AM68 °FSunny.6 mph83%30.09 "Hg9 mi
7:00 AM66 °FSunny.7 mph83%30.07 "Hg9 mi
6:00 AM64 °FClear.8 mph88%30.04 "Hg9 mi
5:00 AM66 °FClear.10 mph83%30.03 "Hg9 mi
4:00 AM68 °FPassing clouds.10 mph78%30.02 "Hg9 mi
3:00 AM68 °FClear.10 mph78%30.01 "Hg9 mi
2:00 AM68 °FPassing clouds.13 mph78%30.01 "Hg9 mi
1:00 AM70 °FLight rain. Mostly cloudy.13 mph73%29.99 "Hg9 mi
12:00 AM72 °FOvercast.16 mph65%29.98 "Hg9 mi
11:48 PM
Mon, May 25
72 °FOvercast.17 mph69%29.98 "Hg9 mi
11:00 PM72 °FOvercast.18 mph69%29.96 "Hg9 mi
10:00 PM72 °FPassing clouds.17 mph69%29.96 "Hg9 mi
Weather by CustomWeather, © 2015

See weather overviewHow to use our weather pages